Retour au catalogue

STARLINK-35830

ActifCommunicationsVLEO
NORAD 66284·PAYLOAD·🇺🇸 United States

Lancé Oct 31, 2025 depuis Vandenberg Space Force Base

Loading…

Prochains Passages (prochaines 24 heures)

TLE

FraisSource: CelesTrak SupGP

Époque: Sep 15, 2026, 02:26 UTC

1 66284C 25247V   26258.10187500  .00004575  00000+0  13520-3 0  2583
2 66284  53.1593  28.9157 0001064  83.4564 215.0420 15.34380804    18

Suivez STARLINK-35830 en temps réel avec AllMySat

Download on the App Store